Stündliche Wetter Bolshie Elbuzdovskie

Heute, 21 April, Mittwoch

Zeit Temperatur Niederschläge Wind Luftdruck Luftfeuchtigkeit
00:00 +9°C° 0 mm 8 m/S 754 mmHg 81%
01:00 +7°C° 0 mm 8 m/S 754 mmHg 81%
02:00 +7°C° 0 mm 9 m/S 754 mmHg 82%
03:00 +7°C° 0 mm 9 m/S 755 mmHg 82%
04:00 +7°C° 0 mm 8 m/S 755 mmHg 84%
05:00 +8°C° 0 mm 7 m/S 756 mmHg 86%
06:00 +8°C° 0 mm 6 m/S 756 mmHg 88%
07:00 +9°C° 0 mm 6 m/S 757 mmHg 84%
08:00 +10°C° 0 mm 6 m/S 757 mmHg 81%
09:00 +11°C° 0 mm 6 m/S 758 mmHg 77%
10:00 +13°C° 0 mm 6 m/S 758 mmHg 71%
11:00 +14°C° 0 mm 6 m/S 758 mmHg 66%
12:00 +15°C° 0 mm 6 m/S 759 mmHg 60%
13:00 +15°C° 0.1 mm 5 m/S 759 mmHg 60%
14:00 +15°C° 0.1 mm 5 m/S 759 mmHg 60%
15:00 +15°C° 0.1 mm 5 m/S 759 mmHg 59%
16:00 +15°C° 0 mm 4 m/S 759 mmHg 62%
17:00 +14°C° 0 mm 4 m/S 760 mmHg 65%
18:00 +14°C° 0 mm 3 m/S 760 mmHg 67%
19:00 +13°C° 0 mm 3 m/S 760 mmHg 71%
20:00 +12°C° 0 mm 2 m/S 761 mmHg 74%
21:00 +10°C° 0 mm 2 m/S 761 mmHg 78%
22:00 +11°C° 0 mm 1 m/S 761 mmHg 78%
23:00 +10°C° 0 mm 1 m/S 761 mmHg 79%

Morgen, 22 April, Donnerstag

Zeit Temperatur Niederschläge Wind Luftdruck Luftfeuchtigkeit
00:00 +10°C° 0 mm 1 m/S 761 mmHg 80%
01:00 +10°C° 0 mm 1 m/S 761 mmHg 81%
02:00 +10°C° 0 mm 1 m/S 762 mmHg 81%
03:00 +9°C° 0 mm 1 m/S 762 mmHg 82%
04:00 +8°C° 0 mm 0 m/S 762 mmHg 83%
05:00 +8°C° 0 mm 0 m/S 762 mmHg 84%
06:00 +8°C° 0 mm 0 m/S 762 mmHg 84%
07:00 +10°C° 0 mm 0 m/S 762 mmHg 80%
08:00 +13°C° 0 mm 1 m/S 762 mmHg 75%
09:00 +14°C° 0 mm 1 m/S 763 mmHg 70%
10:00 +15°C° 0.2 mm 1 m/S 762 mmHg 67%
11:00 +16°C° 0.2 mm 1 m/S 762 mmHg 64%
12:00 +17°C° 0.2 mm 2 m/S 762 mmHg 61%
13:00 +17°C° 0.4 mm 2 m/S 762 mmHg 61%
14:00 +18°C° 0.4 mm 2 m/S 762 mmHg 60%
15:00 +18°C° 0.4 mm 2 m/S 762 mmHg 60%
16:00 +17°C° 0.7 mm 2 m/S 762 mmHg 65%
17:00 +16°C° 0.7 mm 2 m/S 762 mmHg 71%
18:00 +15°C° 0.7 mm 2 m/S 762 mmHg 76%
19:00 +15°C° 0.7 mm 2 m/S 762 mmHg 78%
20:00 +14°C° 0.7 mm 2 m/S 762 mmHg 80%
21:00 +13°C° 0.7 mm 2 m/S 762 mmHg 83%
22:00 +13°C° 0.4 mm 2 m/S 762 mmHg 84%
23:00 +13°C° 0.4 mm 2 m/S 762 mmHg 86%

übermorgen, 23 April, Freitag

Zeit Temperatur Niederschläge Wind Luftdruck Luftfeuchtigkeit
00:00 +12°C° 0.4 mm 2 m/S 762 mmHg 88%
01:00 +12°C° 0.2 mm 2 m/S 762 mmHg 90%
02:00 +10°C° 0.2 mm 2 m/S 762 mmHg 91%
03:00 +9°C° 0.2 mm 2 m/S 762 mmHg 93%
04:00 +10°C° 0 mm 1 m/S 762 mmHg 93%
05:00 +10°C° 0 mm 1 m/S 762 mmHg 93%
06:00 +9°C° 0 mm 0 m/S 762 mmHg 93%
07:00 +12°C° 0 mm 1 m/S 762 mmHg 86%
08:00 +13°C° 0 mm 1 m/S 762 mmHg 80%
09:00 +15°C° 0 mm 1 m/S 762 mmHg 74%
10:00 +16°C° 0.2 mm 2 m/S 762 mmHg 69%
11:00 +16°C° 0.2 mm 2 m/S 762 mmHg 65%
12:00 +17°C° 0.2 mm 3 m/S 762 mmHg 60%
13:00 +18°C° 0.1 mm 3 m/S 762 mmHg 57%
14:00 +18°C° 0.1 mm 3 m/S 761 mmHg 54%
15:00 +19°C° 0.1 mm 4 m/S 761 mmHg 51%
16:00 +18°C° 0 mm 3 m/S 761 mmHg 55%
17:00 +17°C° 0 mm 3 m/S 761 mmHg 60%
18:00 +17°C° 0 mm 2 m/S 761 mmHg 64%
19:00 +15°C° 0 mm 2 m/S 761 mmHg 68%
20:00 +14°C° 0 mm 1 m/S 761 mmHg 71%
21:00 +13°C° 0 mm 1 m/S 761 mmHg 74%
22:00 +12°C° 0 mm 1 m/S 760 mmHg 75%
23:00 +12°C° 0 mm 1 m/S 760 mmHg 76%

24 April, Samstag

Zeit Temperatur Niederschläge Wind Luftdruck Luftfeuchtigkeit
00:00 +12°C° 0 mm 1 m/S 760 mmHg 77%
01:00 +12°C° 0 mm 1 m/S 760 mmHg 78%
02:00 +10°C° 0 mm 2 m/S 760 mmHg 80%
03:00 +10°C° 0 mm 2 m/S 760 mmHg 81%
04:00 +10°C° 0 mm 2 m/S 760 mmHg 81%
05:00 +9°C° 0 mm 2 m/S 760 mmHg 82%
06:00 +9°C° 0 mm 2 m/S 759 mmHg 82%
07:00 +11°C° 0 mm 3 m/S 760 mmHg 76%
08:00 +12°C° 0 mm 4 m/S 760 mmHg 70%
09:00 +14°C° 0 mm 5 m/S 760 mmHg 65%
10:00 +15°C° 0 mm 5 m/S 759 mmHg 62%
11:00 +15°C° 0 mm 6 m/S 759 mmHg 59%
12:00 +16°C° 0 mm 6 m/S 759 mmHg 57%
13:00 +16°C° 0.1 mm 7 m/S 759 mmHg 58%
14:00 +16°C° 0.1 mm 7 m/S 759 mmHg 58%
15:00 +16°C° 0.1 mm 8 m/S 759 mmHg 59%
16:00 +15°C° 0.1 mm 7 m/S 759 mmHg 64%
17:00 +14°C° 0.1 mm 5 m/S 759 mmHg 68%
18:00 +14°C° 0.1 mm 4 m/S 760 mmHg 73%
19:00 +13°C° 0 mm 4 m/S 760 mmHg 76%
20:00 +12°C° 0 mm 3 m/S 760 mmHg 79%
21:00 +12°C° 0 mm 2 m/S 760 mmHg 82%
22:00 +10°C° 0 mm 2 m/S 760 mmHg 85%
23:00 +9°C° 0 mm 2 m/S 760 mmHg 87%

25 April, Sonntag

Zeit Temperatur Niederschläge Wind Luftdruck Luftfeuchtigkeit
00:00 +9°C° 0 mm 2 m/S 760 mmHg 89%
01:00 +8°C° 0 mm 2 m/S 760 mmHg 88%
02:00 +9°C° 0 mm 1 m/S 760 mmHg 86%
03:00 +9°C° 0 mm 1 m/S 760 mmHg 85%
04:00 +9°C° 0 mm 1 m/S 760 mmHg 84%
05:00 +9°C° 0 mm 1 m/S 760 mmHg 84%
06:00 +9°C° 0 mm 1 m/S 760 mmHg 83%
07:00 +10°C° 0 mm 1 m/S 760 mmHg 77%
08:00 +11°C° 0 mm 1 m/S 760 mmHg 71%
09:00 +13°C° 0 mm 1 m/S 760 mmHg 64%
10:00 +13°C° 0 mm 1 m/S 760 mmHg 60%
11:00 +14°C° 0 mm 1 m/S 760 mmHg 56%
12:00 +15°C° 0 mm 1 m/S 759 mmHg 51%
13:00 +15°C° 0 mm 1 m/S 759 mmHg 55%
14:00 +14°C° 0 mm 1 m/S 759 mmHg 58%
15:00 +14°C° 0 mm 1 m/S 759 mmHg 61%
16:00 +13°C° 0.5 mm 1 m/S 759 mmHg 70%
17:00 +12°C° 0.5 mm 2 m/S 759 mmHg 79%
18:00 +10°C° 0.5 mm 2 m/S 759 mmHg 87%
19:00 +10°C° 1 mm 3 m/S 758 mmHg 90%
20:00 +9°C° 1 mm 3 m/S 758 mmHg 92%
21:00 +9°C° 1 mm 3 m/S 758 mmHg 94%
22:00 +9°C° 0.7 mm 3 m/S 757 mmHg 94%
23:00 +8°C° 0.7 mm 4 m/S 757 mmHg 95%

26 April, Montag

Zeit Temperatur Niederschläge Wind Luftdruck Luftfeuchtigkeit
00:00 +8°C° 0.7 mm 4 m/S 756 mmHg 95%
01:00 +8°C° 0.7 mm 4 m/S 756 mmHg 95%
02:00 +7°C° 0.7 mm 4 m/S 756 mmHg 95%
03:00 +7°C° 0.7 mm 5 m/S 755 mmHg 95%
04:00 +7°C° 0.8 mm 5 m/S 755 mmHg 95%
05:00 +7°C° 0.8 mm 5 m/S 754 mmHg 95%
06:00 +7°C° 0.8 mm 6 m/S 754 mmHg 94%
07:00 +7°C° 0.1 mm 5 m/S 754 mmHg 94%
08:00 +7°C° 0.1 mm 5 m/S 753 mmHg 94%
09:00 +7°C° 0.1 mm 5 m/S 753 mmHg 94%
10:00 +7°C° 0.1 mm 4 m/S 753 mmHg 95%
11:00 +8°C° 0.1 mm 4 m/S 753 mmHg 95%
12:00 +9°C° 0.1 mm 3 m/S 753 mmHg 96%
13:00 +9°C° 0 mm 3 m/S 752 mmHg 95%
14:00 +9°C° 0 mm 3 m/S 752 mmHg 94%
15:00 +9°C° 0 mm 3 m/S 752 mmHg 93%
16:00 +9°C° 0 mm 3 m/S 752 mmHg 92%
17:00 +9°C° 0 mm 2 m/S 752 mmHg 90%
18:00 +9°C° 0 mm 2 m/S 752 mmHg 89%
19:00 +9°C° 0 mm 2 m/S 752 mmHg 90%
20:00 +9°C° 0 mm 2 m/S 752 mmHg 90%
21:00 +8°C° 0 mm 2 m/S 752 mmHg 91%
22:00 +8°C° 0.1 mm 2 m/S 752 mmHg 92%
23:00 +8°C° 0.1 mm 3 m/S 752 mmHg 93%
Mehr zeigen

Wir brauchen deine Erlaubnis

Meteoprog und unser Service Anbieter werden persönliche Daten aufbewahren, so wie Cookies, Geräte Bezeichnung oder ähnliche Technologien von deinem Gerät und Prozess, so wie Persönliche Daten Inhalte und Werbungen, genauso wie social Media und den Verkehr zu analysieren.

  • Aufbewahrung und/oder Zugang zu deiner Geräte Informationen.

    Cookies, Geräte Bezeichnung oder andere Informationen, können aufbewahrt oder Zugang zu deinem Gerät erhalten, für den Grund, der oben angegeben wird.

  • Personalisierte Werbung und Inhalte, Messungen, Einblick in das Publikum und Produkt Entwicklung.

    Werbungen und Inhalte können personalisiert werden, basierend auf ein Profil. Mehr Daten können besser personalisierte Werbungen und Inhalte hinzufügen. Werbung und Inhalte können gezeigt und gemessen werden. Einblicke über das Publikum, welche die Werbung gesehen haben und den Inhalt, können abgeleitet werden. So wie Daten können genutzt werden, um es zu verbessern oder die Benutzer Erfahrung zu verbessern das System und die Software.

Wenn du “Ich stimme zu” klickst, erlaubst du uns, die Cookies zu benutzen die Geräte Bezeichnung, den Web oder ähnliche Technologien zu benutzen. Deine Settings, können in deinem Gerät bei deinem Browser geändert werden.

Für den bestimmten Zweck, berechtigten Interessen beruhen darauf, mehr als auf den Inhalt. Du kannst mehr darüber in unseren Privaten und Cookie Politik lesen.